Location: Belfast
(54.5830°N, 5.9330°W)
Time: 05:49:27
(UTC+01:00)

ISS - Pass Details

Date: 29 May 2017
Orbit: 400 x 408 km, 51.6° (Epoch: 23 July)

Event Time Altitude Azimuth Distance (km) Brightness Sun altitude
Rises 22:40:42 0° 251° (WSW) 2,345 0.3 -6.3°
Reaches altitude 10° 22:42:50 10° 245° (WSW) 1,483 -0.8 -6.5°
Maximum altitude 22:46:02 46° 171° (S) 563 -3.5 -6.7°
Drops below altitude 10° 22:49:15 10° 97° (E) 1,480 -1.4 -7.0°
Enters shadow 22:52:13 -3° 90° (E) 2,685 0.0 -7.3°
